Location: Nitra
(0.0000°N, 18.0833°E)
Time: 05:52:26
(UTC+01:00)

Daily predictions for brighter satellites

Satellite Brightness Start Highest point End
(mag) Time Altitude Azimuth Time Altitude Azimuth Time Altitude Azimuth
ARIANE 5 R/B 4.5 02:59:26 78° SSW 03:00:13 80° S 08:56:42 10° E
Ariane H10+ 4.4 03:30:19 86° NW 03:30:29 87° N 03:36:41 10° E
BLOCK DM-SL R/B 4.4 03:30:21 85° SW 03:30:32 86° S 03:59:41 10° E
BLOCK DM-SL R/B 4.4 03:30:21 85° SW 03:30:32 86° S 03:59:40 10° E
BLOCK DM-SL R/B 4.4 03:30:21 85° SW 03:30:33 86° S 03:59:40 10° E
Cosmos 2322 Rocket 4.3 03:29:56 10° SSE 03:34:23 24° ESE 03:38:49 10° NE
ATLAS 3B R/B 4.1 03:41:32 24° S 03:41:32 24° S 03:44:10 10° S
ARIANE 44P R/B 4.5 03:44:00 34° NE 03:44:00 34° NE 03:46:01 10° ENE
NOSS 3-2 (A) 4.0 03:44:31 85° WNW 03:44:41 86° WSW 03:53:01 10° SSE
Milstar 3 3.8 03:45:56 48° NNW 03:49:00 64° NNE 03:56:42 10° ESE
Atlas Centaur 2 2.5 04:03:37 44° ESE 04:03:37 44° ESE 04:06:44 10° ENE
ARIANE 5 R/B 3.8 04:05:47 22° E 04:05:47 22° E 04:06:35 10° E
ISS -1.1 04:06:56 19° ESE 04:06:56 19° ESE 04:08:43 10° ENE
ARIANE 5 R/B 3.6 04:08:30 37° NE 04:08:30 37° NE 04:10:05 10° ENE
SL-16 R/B 2.2 04:14:02 10° SSW 04:19:43 82° ESE 04:25:22 10° NNE
Delta 2 Rocket 4.2 04:19:43 48° WSW 04:21:57 80° NNW 04:30:08 10° ENE
Cosmos 967 Rocket 4.4 04:20:38 10° SSW 04:26:56 88° ESE 04:33:19 10° NNE
Cosmos 1825 3.5 04:33:37 27° SSW 04:33:37 27° SSW 04:35:33 10° S
CZ-2C R/B 3.5 04:29:01 10° NNE 04:34:00 49° ESE 04:38:58 10° S
Meteor 2-17 Rocket 4.3 04:30:31 10° S 04:36:31 69° W 04:42:31 10° N
deb Ariane 4.4 04:36:40 27° SSW 04:37:00 27° S 04:39:38 10° ESE
Cosmos 2242 Rocket 3.8 04:32:32 10° S 04:37:03 72° E 04:41:35 10° N
Cosmos 1441 Rocket 3.4 04:33:48 10° S 04:37:44 76° E 04:41:41 10° N
NOSS 3-2 (C) 4.4 04:35:01 30° WNW 04:38:49 48° WSW 04:46:43 10° S
Cosmos 1862 4.3 04:38:32 10° N 04:42:25 48° E 04:46:19 10° SSE
ARIANE 5 R/B 3.7 04:37:14 27° W 04:42:36 71° S 04:46:40 10° ESE
Cosmos 1605 Rocket 3.9 04:37:32 10° SSW 04:43:39 59° W 04:49:40 10° N
Cosmos 2227 Rocket 2.1 04:38:46 13° NNW 04:43:48 80° WSW 04:49:27 10° SSE
Meteor 1-28 Rocket 3.3 04:43:09 10° SSE 04:46:58 74° ENE 04:50:44 10° N
NOAA 6 3.9 04:42:17 10° N 04:47:21 66° WNW 04:52:26 10° SSW
Feng Yun 1-1 Rocket 4.2 04:41:54 10° N 04:47:37 75° WNW 04:53:29 10° SSW
GENESIS II 4.2 04:46:31 36° WSW 04:47:43 53° WNW 04:51:31 10° N
Cosmos 1000 Rocket 4.5 04:46:03 10° NNW 04:52:02 55° W 04:58:00 10° S
USA 215 3.6 04:47:51 10° SE 04:54:20 65° NE 05:00:48 10° NNW
PAYLOAD A 4.0 04:51:35 10° N 04:56:27 56° WNW 05:01:33 10° SSW
Cosmos 2297 Rocket 2.1 04:51:56 10° NNW 04:57:32 69° WSW 05:03:09 10° S
CENTAUR R/B 3.2 04:51:57 10° NNW 05:00:29 83° WSW 05:08:40 10° SSE
Spelda 3.6 04:59:43 31° WSW 05:00:32 49° S 05:03:57 10° ESE
IDEFIX/ARIANE 42P 2.8 04:57:27 10° N 05:02:23 46° WNW 05:07:20 10° SSW
Radarsat Rocket 4.2 04:57:10 10° N 05:03:21 65° WNW 05:10:24 10° SSW
ARIANE 5 R/B 3.7 05:01:54 16° WSW 05:06:13 60° S 05:49:15 10° E
Cosmos 1862 Rocket 3.7 05:04:20 10° SSW 05:08:30 48° W 05:12:39 10° NNW
ARIANE 44LP R/B 3.2 05:05:30 17° W 05:11:04 62° N 05:13:37 10° ENE
Cosmos 1461 3.3 05:09:58 10° SW 05:13:37 36° WNW 05:17:27 10° N
Cosmos 1606 2.8 05:10:45 10° S 05:14:38 79° E 05:18:27 10° N
Cosmos 2061 Rocket 4.4 05:09:26 10° S 05:15:40 69° E 05:21:49 10° N
COSMO-SKYMED 1 3.5 05:12:04 10° SSE 05:16:17 50° ENE 05:20:29 10° N
Cosmos 1459 Rocket 4.0 05:10:58 10° S 05:17:06 88° E 05:23:20 10° N
Cosmos 2173 Rocket 4.1 05:11:31 10° S 05:17:51 88° E 05:24:04 10° N
Cosmos 2322 Rocket 3.2 05:13:45 10° SW 05:18:07 23° WNW 05:22:31 10° NNW
Cosmos 1802 Rocket 4.4 05:12:32 10° S 05:18:58 74° E 05:25:21 10° N
Ariane H10 3.2 05:18:53 13° WNW 05:21:37 44° N 05:30:45 10° E
Lacrosse 4 Rocket 2.5 05:20:58 10° S 05:24:57 47° ESE 05:28:52 10° NE
Cosmos 2082 4.3 05:22:02 10° NW 05:27:15 37° WSW 05:32:30 10° S
Cosmos 2360 Rocket 2.2 05:21:44 10° SSW 05:27:19 60° WNW 05:32:52 10° N
Milstar 3 Cent rocket 4.4 05:25:15 10° NNW 05:27:24 12° N 05:29:52 10° NNE
Okean 1-7 4.1 05:23:32 10° SSE 05:27:39 49° E 05:31:47 10° NNE
EPKM 3.9 05:21:28 11° WNW 05:29:09 37° SW 05:31:44 10° SSE
Cosmos 1733 Rocket 3.6 05:25:15 10° N 05:29:37 65° E 05:34:01 10° SSE
ARIANE DEB (SPELDA) 4.0 05:26:24 10° W 05:30:03 68° S 05:49:34 10° E
Cosmos 405 Rocket 4.4 05:28:52 10° WSW 05:31:13 15° W 05:33:33 10° NW
Okean-O 3.9 05:29:04 10° NNW 05:32:19 20° WNW 05:35:36 10° SW
Ariane H10 2.4 05:31:50 10° WSW 05:34:05 32° S 05:36:03 10° ESE
ARIANE 5 R/B 3.0 05:25:38 10° W 05:37:46 74° N 05:40:29 10° E
